Akron Canton, OH

3:03 PM EST on February 21, 2018 (GMT -0500)
Akron-Canton Regional

Weather History for KCAK - February, 2014

Change the Weather History Date:

Thursday, February 20, 2014

  Actual Average Record
Temperature  
Mean Temperature 38 °F 30 °F  
Max Temperature 52 °F 38 °F 74 °F (2018)
Min Temperature 23 °F 22 °F -10 °F (2015)
Degree Days  
Heating Degree Days 27 35  
Month to date heating degree days 861 737  
Since 1 July heating degree days 4506 4273  
Cooling Degree Days 0 0  
Month to date cooling degree days 0 0  
Year to date cooling degree days 0 0  
Moisture  
Dew Point 33 °F    
Average Humidity 82    
Maximum Humidity 100    
Minimum Humidity 63    
Precipitation  
Precipitation 0.25 in 0.08 in 0.53 in (1981)
Month to date precipitation 1.45 1.62  
Year to date precipitation 3.37 4.23  
Snow  
Snow 0.00 in 0.40 in - ()
Month to date snowfall 15.1 7.4  
Since 1 July snowfall 57.4 33.4  
Snow Depth 7.00 in    
Sea Level Pressure  
Sea Level Pressure 29.89 in    
Wind  
Wind Speed 8 mph (SSE)    
Max Wind Speed 18 mph    
Max Gust Speed 18 mph    
Visibility 6 miles    
Events Rain    
T = Trace of Precipitation, MM = Missing Value Source: NWS Daily Summary

Daily Weather History Graph

Daily Weather History Graph

Search for Another Location

Airport or City:

Trip Planner

Search our weather history database for the weather conditions in past years. The results will help you decide how hot, cold, wet, or windy it might be!

Date:

Astronomy

Feb. 20, 2014 Rise Set
Actual Time 7:13 AM EST 6:06 PM EST
Civil Twilight 6:45 AM EST 6:34 PM EST
Nautical Twilight 6:13 AM EST 7:06 PM EST
Astronomical Twilight 5:41 AM EST 7:38 PM EST
Moon No Moon Rise 9:52 AM EST (2/20)
Length of Visible Light 11h 48m
Length of Day
10h 53m
Waning Gibbous, 71% of the Moon is Illuminated
Feb 20
Waning Gibbous
Feb 22
Last Quarter
Mar 1
New
Mar 8
First Quarter
Mar 16
Full

Hourly Weather History & Observations

Time (EST) Temp. Windchill Dew Point Humidity Pressure Visibility Wind Dir Wind Speed Gust Speed Precip Events Conditions
12:51 AM 28.0 °F - 25.0 °F 88% 30.09 in 3.0 mi Calm Calm - N/A   Clear
1:51 AM 27.0 °F - 24.1 °F 89% 30.12 in 3.0 mi Calm Calm - N/A   Clear
2:51 AM 26.1 °F - 24.1 °F 92% 30.13 in 3.0 mi Calm Calm - N/A   Clear
3:51 AM 23.0 °F - 22.1 °F 96% 30.13 in 3.0 mi Calm Calm - N/A   Clear
4:51 AM 23.0 °F - 22.1 °F 96% 30.10 in 3.0 mi Calm Calm - N/A   Clear
5:51 AM 23.0 °F - 22.1 °F 96% 30.07 in 3.0 mi Calm Calm - N/A   Clear
6:51 AM 25.0 °F 20.7 °F 25.0 °F 100% 30.06 in 3.0 mi Variable 3.5 mph - N/A   Partly Cloudy
7:51 AM 28.0 °F 21.7 °F 25.0 °F 88% 30.06 in 3.0 mi SE 5.8 mph - N/A   Scattered Clouds
8:51 AM 30.0 °F 26.5 °F 28.0 °F 92% 30.02 in 5.0 mi SSE 3.5 mph - N/A   Mostly Cloudy
9:51 AM 32.0 °F 24.8 °F 30.0 °F 92% 29.94 in 5.0 mi SE 8.1 mph - N/A   Mostly Cloudy
10:51 AM 37.0 °F 29.8 °F 28.0 °F 70% 29.94 in 7.0 mi SE 10.4 mph - 0.01 in Rain Light Rain
11:39 AM 37.4 °F 29.3 °F 30.2 °F 75% 29.84 in 2.0 mi SSE 12.7 mph - 0.03 in Rain Rain
11:51 AM 37.9 °F 32.1 °F 32.0 °F 79% 29.89 in 5.0 mi SE 8.1 mph - 0.11 in Rain Rain
12:51 PM 39.9 °F 33.4 °F 34.0 °F 79% 29.83 in 7.0 mi SSE 10.4 mph - 0.07 in Rain Light Rain
1:51 PM 42.1 °F 34.2 °F 36.0 °F 79% 29.79 in 5.0 mi South 16.1 mph - 0.04 in   Haze
2:51 PM 44.1 °F 37.7 °F 37.9 °F 79% 29.78 in 7.0 mi South 12.7 mph - N/A   Overcast
3:51 PM 46.0 °F 40.6 °F 39.4 °F 78% 29.77 in 10.0 mi South 11.5 mph - N/A   Overcast
4:51 PM 47.5 °F - 39.6 °F 74% 29.75 in 10.0 mi South 11.5 mph - N/A   Overcast
5:51 PM 48.4 °F - 40.8 °F 75% 29.73 in 10.0 mi South 10.4 mph - N/A   Overcast
6:51 PM 48.6 °F - 40.5 °F 74% 29.68 in 10.0 mi South 10.4 mph - N/A   Overcast
7:51 PM 51.1 °F - 39.9 °F 66% 29.68 in 10.0 mi South 11.5 mph - N/A   Overcast
8:51 PM 51.4 °F - 40.5 °F 66% 29.67 in 10.0 mi South 11.5 mph - N/A   Overcast
9:51 PM 50.9 °F - 42.8 °F 74% 29.65 in 10.0 mi South 8.1 mph - 0.00 in Rain Light Rain
10:51 PM 50.9 °F - 43.2 °F 75% 29.62 in 10.0 mi South 8.1 mph - N/A   Overcast
11:51 PM 50.9 °F - 46.9 °F 86% 29.63 in 10.0 mi South 18.4 mph - 0.02 in Rain Light Rain